This demonstration page uses our WeatherBlox Daily Observations layout. Learn more.

Left ArrowRight Arrow

Hourly Observations for May 8, 2015

Temp ( °F °C ) Dew Point ( °F °C ) Humidity (%) Winds ( mph kmh ) Pressure ( in mb ) Visibility ( mi km ) Precip ( " mm )
12:53 am 00:53 Clear 67 19.4 32 0 27 27 N 8 13 29.77 1008 10 16 0.00 0.00
1:53 am 01:53 Clear 60 15.6 35 1.7 39 39 SSE 7 11 29.77 1008 10 16 0.00 0.00
2:53 am 02:53 Clear 54 12.2 40 4.4 59 59 Calm 29.76 1008 10 16 0.00 0.00
3:53 am 03:53 Clear 53 11.7 40 4.4 61 61 Calm 29.76 1008 10 16 0.00 0.00
4:53 am 04:53 Clear 51 10.6 40 4.4 66 66 Calm 29.77 1008 10 16 0.00 0.00
5:53 am 05:53 Clear 47 8.3 39 3.9 74 74 SE 3 6 29.78 1009 10 16 0.00 0.00
6:53 am 06:53 Sunny 51 10.6 42 5.6 71 71 SE 3 6 29.80 1009 10 16 0.00 0.00
7:53 am 07:53 Sunny 56 13.3 42 5.6 60 60 Calm 29.80 1009 10 16 0.00 0.00
8:53 am 08:53 Sunny 64 17.8 41 5 43 43 Calm 29.80 1009 10 16 0.00 0.00
9:53 am 09:53 Sunny 75 23.9 38 3.3 26 26 N 12 19 29.78 1008 10 16 0.00 0.00
10:53 am 10:53 Sunny 77 25 37 2.8 24 24 NNE 12 19 29.77 1008 10 16 0.00 0.00
11:53 am 11:53 Sunny 80 26.7 38 3.3 22 22 ENE 10 17 29.77 1008 10 16 0.00 0.00
12:53 pm 12:53 Sunny 78 25.6 38 3.3 24 24 VRB 7 11 29.76 1008 10 16 0.00 0.00
1:53 pm 13:53 Sunny 82 27.8 41 5 23 23 SSW 12 19 29.76 1008 10 16 0.00 0.00
2:53 pm 14:53 Sunny 83 28.3 42 5.6 24 24 SSW 13 20 29.75 1008 10 16 0.00 0.00
3:53 pm 15:53 Sunny 84 28.9 41 5 22 22 S 8 13 29.74 1007 10 16 0.00 0.00
4:53 pm 16:53 Sunny 82 27.8 46 7.8 28 28 SSE 16 26 29.74 1007 10 16 0.00 0.00
5:53 pm 17:53 Sunny 79 26.1 46 7.8 31 31 SSE 21 33 29.75 1008 10 16 0.00 0.00
6:53 pm 18:53 Sunny 76 24.4 46 7.8 35 35 S 18 30 29.78 1008 10 16 0.00 0.00
7:53 pm 19:53 Sunny 73 22.8 46 7.8 38 38 S 14 22 29.82 1010 10 16 0.00 0.00
8:53 pm 20:53 Clear 72 22.2 46 7.8 40 40 SW 9 15 29.87 1012 10 16 0.00 0.00
9:53 pm 21:53 Clear 70 21.1 47 8.3 44 44 SW 9 15 29.89 1012 10 16 0.00 0.00
10:53 pm 22:53 Clear 66 18.9 47 8.3 50 50 ESE 5 7 29.93 1013 10 16 0.00 0.00
11:53 pm 23:53 Clear 64 17.8 47 8.3 54 54 Calm 29.94 1014 10 16 0.00 0.00

Powered by AerisWeather